Regional Weather Roundup
Issued by NWS

Home | Current Version | Previous Version | Text Only | Print | Product List | Glossary Off
Versions: 1 2 3 4 5 6 7 8 9 10 11 12 13 14 15 16 17 18 19 20 21 22 23 24 25 26 27 28 29 30 31 32 33 34 35 36 37 38 39 40 41 42 43 44 45 46 47 48 49 50

000
ASUS43 KLMK 061610
RWRKY
KENTUCKY REGIONAL WEATHER ROUNDUP
NATIONAL WEATHER SERVICE LOUISVILLE KY
1200 PM EDT FRI MAY 06 2016

NOTE "FAIR" INDICATES FEW OR NO CLOUDS BELOW 12,000 FEET
WITH NO SIGNIFICANT WEATHER AND/OR OBSTRUCTIONS TO VISIBILITY.

KYZ001>023-026-027-061>063-070>075-061700-
WESTERN AND SOUTH CENTRAL KENTUCKY

CITY           SKY/WX    TMP DP  RH WIND       PRES   REMARKS
PADUCAH        SUNNY     69  46  43 N10       30.07F
HENDERSON      SUNNY     66  46  48 W7        30.05F
OWENSBORO      SUNNY     67  48  50 N9        30.06S
HOPKINSVILLE   SUNNY     65  47  52 N9        30.06S
BOWLING GREEN  SUNNY     67  44  43 N8G17     30.05R
GLASGOW        SUNNY     65  43  44 N9        30.03S
$$

KYZ024-025-028>034-038-045-046-053-061700-
NORTH CENTRAL KENTUCKY

CITY           SKY/WX    TMP DP  RH WIND       PRES   REMARKS
LOUISVILLE/SDF MOSUNNY   67  39  35 N16       30.02S
LOUISVILLE/LOU SUNNY     67  41  38 NW8       30.03S
FORT KNOX      SUNNY     65  42  43 N12       30.01F
$$

KYZ035>037-039>044-047>052-055>060-089>105-061700-
NORTHEAST KENTUCKY

CITY           SKY/WX    TMP DP  RH WIND       PRES   REMARKS
LEXINGTON      SUNNY     65  44  46 N13G20    29.99S
COVINGTON      MOSUNNY   64  44  48 NW7       29.99S
FRANKFORT      NOT AVBL
$$

KYZ054-064>069-076>088-106>120-061700-
SOUTHEAST KENTUCKY

CITY           SKY/WX    TMP DP  RH WIND       PRES   REMARKS
JACKSON        MOSUNNY   61  41  47 NW8       29.95S
LONDON         PTSUNNY   61  40  45 N10       29.97S
SOMERSET       MOSUNNY   61  43  51 NE12G18   30.00F
MIDDLESBORO    PTSUNNY   60  44  57 NW10G17   29.97S
MONTICELLO     SUNNY     63  46  54 N18G28    30.02S
$$




USA.gov is the U.S. government's official web portal to all federal, state and local government web resources and services.